Location: ??
(35.5052°N, 139.7262°E)
Time: 09:10:21
(UTC+00:00)

Nauka - Pass Details

Date: 20 September 2021
Orbit: 418 x 423 km, 51.6° (Epoch: 21 October)

Event Time Altitude Azimuth Distance (km) Brightness Sun altitude
Rises 09:29:41 0° 260° (W) 2,352 ? -10.6°
Reaches altitude 10° 09:32:07 10° 277° (W) 1,492 ? -11.1°
Maximum altitude 09:34:44 21° 329° (NNW) 1,000 ? -11.7°
Drops below altitude 10° 09:37:20 10° 20° (NNE) 1,484 ? -12.2°
Enters shadow 09:39:27 - 36° (NE) 2,220 ? -12.6°
